Weather History for KORH - September, 2013

Change the Weather History Date:

Thursday, September 5, 2013

  Actual Average Record
Temperature  
Mean Temperature 60 °F 65 °F  
Max Temperature 68 °F 73 °F 88 °F (1953)
Min Temperature 52 °F 57 °F 39 °F (1930)
Degree Days  
Heating Degree Days 5 2  
Month to date heating degree days 5 10  
Since 1 July heating degree days 24 49  
Cooling Degree Days 0 2  
Month to date cooling degree days 17 14  
Year to date cooling degree days 548 440  
Growing Degree Days 10 (Base 50)    
Moisture  
Dew Point 49 °F    
Average Humidity 64    
Maximum Humidity 93    
Minimum Humidity 34    
Precipitation  
Precipitation 0.02 in 0.11 in 1.65 in (1896)
Month to date precipitation 1.78 0.57  
Year to date precipitation 34.80 31.93  
Sea Level Pressure  
Sea Level Pressure 30.00 in    
Wind  
Wind Speed 8 mph (NW)    
Max Wind Speed 15 mph    
Max Gust Speed 19 mph    
Visibility 10 miles    
Events Rain    
T = Trace of Precipitation, MM = Missing Value Source: NWS Daily Summary

Daily Weather History Graph

Daily Weather History Graph

Search for Another Location

Airport or City:

Trip Planner

Search our weather history database for the weather conditions in past years. The results will help you decide how hot, cold, wet, or windy it might be!

Date:

Astronomy

Sep. 05, 2013 Rise Set
Actual Time 6:17 AM EDT 7:14 PM EDT
Civil Twilight 5:48 AM EDT 7:42 PM EDT
Nautical Twilight 5:14 AM EDT 8:16 PM EDT
Astronomical Twilight 4:38 AM EDT 8:52 PM EDT
Moon 6:27 AM EDT (9/5) 7:02 PM EDT (9/5)
Length of Visible Light 13h 54m
Length of Day
12h 57m
New Moon, 0% of the Moon is Illuminated
Sep 5
New Moon
Sep 12
First Quarter
Sep 19
Full
Sep 26
Last Quarter
Oct 4
New

Hourly Weather History & Observations

Time (EDT) Temp. Dew Point Humidity Pressure Visibility Wind Dir Wind Speed Gust Speed Precip Events Conditions
12:54 AM 57.0 °F 55.0 °F 93% 29.93 in 10.0 mi SW 5.8 mph - N/A   Partly Cloudy
1:54 AM 60.1 °F 55.0 °F 83% 29.91 in 10.0 mi West 8.1 mph - N/A   Clear
2:54 AM 61.0 °F 55.9 °F 83% 29.91 in 10.0 mi West 9.2 mph - N/A   Scattered Clouds
3:54 AM 59.0 °F 55.0 °F 87% 29.89 in 10.0 mi WSW 8.1 mph - N/A   Mostly Cloudy
4:54 AM 61.0 °F 55.0 °F 81% 29.90 in 10.0 mi West 9.2 mph - N/A   Mostly Cloudy
5:54 AM 61.0 °F 55.0 °F 81% 29.91 in 10.0 mi West 9.2 mph - N/A   Mostly Cloudy
6:54 AM 62.1 °F 55.0 °F 78% 29.92 in 10.0 mi West 10.4 mph - N/A   Overcast
7:54 AM 63.0 °F 55.9 °F 78% 29.93 in 10.0 mi West 9.2 mph - 0.00 in   Overcast
8:54 AM 61.0 °F 57.9 °F 90% 29.96 in 10.0 mi West 9.2 mph - 0.02 in Rain Light Rain
9:54 AM 64.0 °F 59.0 °F 84% 29.97 in 10.0 mi WNW 6.9 mph - 0.00 in   Mostly Cloudy
10:52 AM 64.4 °F 57.2 °F 77% 29.98 in 10.0 mi NE 8.1 mph - N/A   Mostly Cloudy
10:54 AM 64.0 °F 57.0 °F 78% 29.97 in 10.0 mi NE 10.4 mph - N/A   Mostly Cloudy
11:25 AM 66.0 °F 54.0 °F 65% 29.99 in 10.0 mi NNE 8.1 mph - N/A   Scattered Clouds
11:54 AM 64.9 °F 54.0 °F 68% 29.99 in 10.0 mi NNE 6.9 mph - N/A   Mostly Cloudy
12:54 PM 64.9 °F 52.0 °F 63% 29.99 in 10.0 mi North 6.9 mph - N/A   Mostly Cloudy
1:54 PM 66.0 °F 48.9 °F 54% 29.99 in 10.0 mi NNE 4.6 mph - N/A   Mostly Cloudy
2:54 PM 66.0 °F 43.0 °F 43% 30.00 in 10.0 mi NW 12.7 mph - N/A   Overcast
3:54 PM 66.9 °F 39.0 °F 36% 30.01 in 10.0 mi NNW 9.2 mph - N/A   Partly Cloudy
4:54 PM 66.9 °F 37.9 °F 34% 30.02 in 10.0 mi NW 6.9 mph - N/A   Partly Cloudy
5:54 PM 64.9 °F 36.0 °F 34% 30.04 in 10.0 mi NNW 8.1 mph - N/A   Clear
6:54 PM 62.1 °F 37.9 °F 41% 30.06 in 10.0 mi NNW 6.9 mph - N/A   Clear
7:54 PM 59.0 °F 37.0 °F 44% 30.08 in 10.0 mi NNW 8.1 mph - N/A   Clear
8:54 PM 59.0 °F 37.9 °F 46% 30.11 in 10.0 mi NNW 5.8 mph - N/A   Clear
9:54 PM 57.0 °F 39.0 °F 51% 30.13 in 10.0 mi North 6.9 mph - N/A   Clear
10:54 PM 55.9 °F 39.0 °F 53% 30.14 in 10.0 mi North 6.9 mph - N/A   Clear
11:54 PM 53.1 °F 39.9 °F 61% 30.16 in 10.0 mi North 6.9 mph - N/A   Clear